Location: Finney State Fishing Lake and Wildlife Area
(38.1834°N, 100.3310°W)
Time: 17:46:46
(UTC+00:00)

Tiangong - Pass Details

Date: 02 December 2022
Orbit: 383 x 386 km, 41.5° (Epoch: 30 January)

Event Time Altitude Azimuth Distance (km) Brightness Sun altitude
Rises 01:22:40 0° 266° (W) 2,256 3.2 -23.3°
Reaches altitude 10° 01:24:46 10° 272° (W) 1,405 1.7 -23.7°
Enters shadow 01:26:37 30° 288° (WNW) 720 -0.3 -24.0°
